Location: Le Hiès Ruisseau
(43.3000°N, 0.4500°W)
Time: 12:05:04
(UTC+00:00)

BREEZE M DEB (TANK) - Pass Details

Date: 28 January 2023
Orbit: 341 x 13534 km, 49.6° (Epoch: 19 March)

Event Time Altitude Azimuth Distance (km) Brightness Sun altitude
Rises 18:49:01 0° 297° (WNW) 4,345 8.3 -18.4°
Reaches altitude 10° 18:53:02 10° 297° (WNW) 2,387 6.9 -19.2°
Maximum altitude 18:57:27 79° 211° (SSW) 447 2.3 -20.0°
Enters shadow 18:57:39 73° 159° (SSE) 448 2.2 -20.0°
